Location: St Paul
(33.4390°N, 83.7350°W)
Time: 10:52:40
(UTC-04:00)

Cosmos 773 Rocket - Pass Details

Date: 06 October 2017
Orbit: 746 x 776 km, 74.1° (Epoch: 18 October)

Event Time Altitude Azimuth Distance (km) Brightness Sun altitude
Rises 19:31:59 0° 188° (S) 3,233 7.4 -4.9°
Reaches altitude 10° 19:34:22 10° 185° (S) 2,307 6.6 -5.4°
Maximum altitude 19:39:34 66° 104° (ESE) 838 4.0 -6.5°
Drops below altitude 10° 19:44:44 10° 23° (NNE) 2,304 6.2 -7.6°
Sets 19:47:07 0° 21° (NNE) 3,228 7.0 -8.1°
